This demonstration page uses our WeatherBlox Daily Observations layout. Learn more.

Left ArrowRight Arrow

Hourly Observations for July 6, 2018

Temp ( °F °C ) Dew Point ( °F °C ) Humidity (%) Winds ( mph kmh ) Pressure ( in mb ) Visibility ( mi km ) Precip ( " mm )
12:59 am 00:59 Clear 80 26.7 74 23.3 82 82 S 6 9 30.22 1023 10 16 0.00 0.00
1:59 am 01:59 Clear 79 26.1 74 23.3 85 85 S 7 11 30.22 1023 10 16 0.00 0.00
2:59 am 02:59 Clear 79 26.1 74 23.3 85 85 SSW 6 9 30.20 1023 10 16 0.00 0.00
3:59 am 03:59 Clear 78 25.6 73 22.8 85 85 SSW 7 11 30.18 1022 10 16 0.00 0.00
4:59 am 04:59 Mostly Clear 78 25.6 73 22.8 85 85 SSW 7 11 30.18 1022 10 16 0.00 0.00
5:59 am 05:59 Mostly Sunny 78 25.6 74 23.3 87 87 SSW 7 11 30.17 1022 10 16 0.00 0.00
6:59 am 06:59 Partly Cloudy 78 25.6 73 22.8 85 85 SW 9 15 30.18 1022 10 16 0.00 0.00
7:59 am 07:59 Partly Cloudy 81 27.2 74 23.3 79 79 SW 8 13 30.17 1022 10 16 0.00 0.00
8:59 am 08:59 Partly Cloudy 83 28.3 74 23.3 74 74 SW 7 11 30.17 1022 10 16 0.00 0.00
9:59 am 09:59 Partly Cloudy 85 29.4 73 22.8 68 68 VRB 7 11 30.15 1021 10 16 0.00 0.00
10:59 am 10:59 Partly Cloudy 87 30.6 74 23.3 65 65 SSW 10 17 30.14 1021 10 16 0.00 0.00
11:59 am 11:59 Partly Cloudy 89 31.7 73 22.8 59 59 SW 8 13 30.13 1020 10 16 0.00 0.00
12:59 pm 12:59 Partly Cloudy 88 31.1 72 22.2 59 59 S 8 13 30.11 1020 10 16 0.00 0.00
1:59 pm 13:59 Partly Cloudy 92 33.3 73 22.8 54 54 SSW 6 9 30.07 1018 10 16 0.00 0.00
2:49 pm 14:49 Partly Cloudy with Thunderstorms 93 33.9 72 22.2 50 50 SSW 8 13 30.06 1018 10 16 0.00 0.00
2:59 pm 14:59 Partly Cloudy with Thunderstorms 91 32.8 71 21.7 52 52 SSW 8 13 30.04 1017 10 16 0.00 0.00
3:33 pm 15:33 Mostly Cloudy with Thunderstorms 78 25.6 71 21.7 79 79 NW 16 26 30.09 1019 2 3 0.02 0.51
3:38 pm 15:38 Cloudy with Strong Thunderstorms 76 24.4 71 21.7 85 85 N 13 20 30.09 1019 1 2 0.06 1.52
3:49 pm 15:49 Cloudy with Thunderstorms 74 23.3 71 21.7 91 91 N 5 7 30.12 1020 2 3 0.11 2.79
3:59 pm 15:59 Cloudy with Thunderstorms 75 23.9 72 22.2 90 90 E 12 19 30.09 1019 3 4 0.13 3.30
4:10 pm 16:10 Cloudy with Thunderstorms 76 24.4 71 21.7 85 85 E 5 7 30.06 1018 6 10 0.02 0.51
4:18 pm 16:18 Cloudy 75 23.9 70 21.1 84 84 SSE 3 6 30.06 1018 8 13 0.03 0.76
4:59 pm 16:59 Mostly Cloudy 75 23.9 72 22.2 90 90 S 5 7 30.07 1018 10 16 0.03 0.76
5:35 pm 17:35 Mostly Cloudy with Thunderstorms 75 23.9 71 21.7 88 88 SW 5 7 30.09 1019 10 16 0.01 0.25
5:59 pm 17:59 Mostly Cloudy with Thunderstorms 76 24.4 72 22.2 88 88 S 5 7 30.06 1018 5 8 0.02 0.51
6:39 pm 18:39 Mostly Cloudy with Light Rain 76 24.4 71 21.7 85 85 W 3 6 30.06 1018 6 10 0.02 0.51
6:59 pm 18:59 Mostly Cloudy with Light Rain 75 23.9 72 22.2 90 90 Calm 30.06 1018 6 10 0.03 0.76
7:59 pm 19:59 Cloudy with Light Rain 76 24.4 73 22.8 91 91 Calm 30.07 1018 8 13 0.00 0.00
8:59 pm 20:59 Cloudy 77 25 73 22.8 88 88 Calm 30.08 1019 10 16 0.02 0.51
9:59 pm 21:59 Cloudy 75 23.9 73 22.8 94 94 Calm 30.09 1019 8 13 0.02 0.51
10:59 pm 22:59 Cloudy 76 24.4 74 23.3 94 94 Calm 30.11 1020 8 13 0.01 0.25
11:59 pm 23:59 Cloudy 78 25.6 75 23.9 90 90 VRB 6 9 30.10 1019 9 14 0.00 0.00

Powered by AerisWeather